QPF
0.00 0.01 0.01 0.00 0.00 0.01 0.02 0.02 0.01 0.01 0.02 0.03 0.03 0.03 0.03 0.03 0.02 0.01 0.01 0.01 0.01 0.01 0.01 0.01 0.01 0.01 0.01 0.03 0.03 0.01 0.01 0.01 0.00 0.00 0.00 0.00 0.01 0.01 0.01 0.01 0.02 0.01 0.01
0.00 0.01 0.01 0.00 0.01 0.02 0.02 0.02 0.01 0.01 0.01 0.03 0.04 0.03 0.03 0.03 0.03 0.02 0.01 0.02 0.02 0.02 0.01 0.01 0.01 0.01 0.02 0.02 0.01 0.01 0.01 0.01 0.00 0.00 0.00 0.00 0.00 0.01 0.01 0.01 0.01 0.01 0.01
0.00 0.01 0.01 0.01 0.01 0.02 0.02 0.01 0.02 0.01 0.01 0.02 0.02 0.03 0.03 0.03 0.04 0.03 0.02 0.02 0.03 0.03 0.04 0.03 0.02 0.02 0.01 0.01 0.01 0.01 0.01 0.00 0.00 0.00 0.01 0.01 0.01 0.01 0.01 0.01 0.01 0.01 0.01
0.00 0.01 0.01 0.01 0.01 0.02 0.02 0.02 0.02 0.02 0.02 0.01 0.02 0.03 0.03 0.03 0.04 0.04 0.03 0.03 0.05 0.05 0.06 0.04 0.02 0.01 0.01 0.01 0.01 0.00 0.00 0.00 0.00 0.00 0.01 0.01 0.01 0.01 0.02 0.01 0.02 0.02 0.02
0.00 0.01 0.03 0.02 0.02 0.02 0.02 0.03 0.03 0.02 0.02 0.02 0.02 0.02 0.02 0.02 0.03 0.03 0.04 0.04 0.05 0.05 0.05 0.03 0.01 0.01 0.01 0.00 0.00 0.00 0.00 0.00 0.00 0.00 0.00 0.01 0.01 0.02 0.02 0.02 0.02 0.03 0.03
0.00 0.02 0.04 0.04 0.03 0.02 0.03 0.04 0.04 0.03 0.03 0.02 0.02 0.02 0.02 0.03 0.03 0.03 0.04 0.04 0.04 0.04 0.03 0.02 0.01 0.01 0.00 0.00 0.00 0.00 0.00 0.00 0.00 0.00 0.01 0.01 0.01 0.02 0.01 0.01 0.01 0.02 0.02
0.00 0.02 0.04 0.04 0.05 0.03 0.03 0.04 0.03 0.03 0.03 0.02 0.02 0.02 0.03 0.03 0.02 0.02 0.03 0.03 0.04 0.03 0.03 0.02 0.01 0.01 0.01 0.00 0.00 0.00 0.00 0.00 0.00 0.00 0.01 0.01 0.02 0.02 0.01 0.01 0.01 0.01 0.02
0.01 0.02 0.04 0.05 0.05 0.04 0.03 0.03 0.03 0.03 0.03 0.02 0.02 0.02 0.03 0.03 0.02 0.02 0.02 0.03 0.04 0.03 0.03 0.02 0.02 0.01 0.01 0.00 0.00 0.00 0.00 0.00 0.00 0.00 0.01 0.01 0.01 0.02 0.01 0.01 0.02 0.01 0.01
0.01 0.02 0.03 0.05 0.04 0.03 0.03 0.03 0.02 0.02 0.03 0.02 0.02 0.02 0.02 0.03 0.04 0.03 0.02 0.03 0.04 0.03 0.03 0.02 0.02 0.01 0.01 0.00 0.00 0.00 0.00 0.00 0.00 0.00 0.00 0.01 0.01 0.02 0.01 0.02 0.02 0.01 0.01
0.03 0.03 0.04 0.05 0.05 0.03 0.03 0.03 0.03 0.03 0.03 0.03 0.02 0.02 0.02 0.03 0.04 0.04 0.03 0.03 0.03 0.03 0.03 0.02 0.02 0.01 0.01 0.00 0.00 0.00 0.00 0.00 0.00 0.00 0.00 0.01 0.01 0.01 0.01 0.01 0.01 0.01 0.01
0.04 0.05 0.06 0.07 0.07 0.04 0.03 0.03 0.03 0.03 0.03 0.04 0.04 0.03 0.03 0.04 0.04 0.03 0.02 0.02 0.03 0.03 0.02 0.02 0.01 0.01 0.01 0.00 0.00 0.00 0.00 0.00 0.00 0.00 0.00 0.01 0.02 0.01 0.01 0.01 0.01 0.01 0.01
0.06 0.09 0.09 0.10 0.09 0.07 0.04 0.03 0.03 0.05 0.03 0.03 0.04 0.05 0.05 0.05 0.06 0.04 0.02 0.02 0.02 0.02 0.02 0.02 0.02 0.01 0.01 0.00 0.00 0.00 0.00 0.00 0.00 0.00 0.00 0.01 0.01 0.02 0.01 0.00 0.00 0.00 0.00
0.04 0.09 0.10 0.11 0.10 0.08 0.05 0.04 0.04 0.05 0.05 0.04 0.05 0.07 0.07 0.08 0.07 0.07 0.04 0.02 0.02 0.02 0.02 0.02 0.02 0.01 0.01 0.00 0.00 0.00 0.00 0.00 0.00 0.00 0.00 0.00 0.01 0.01 0.01 0.01 0.01 0.01 0.01
0.04 0.05 0.09 0.11 0.12 0.10 0.05 0.04 0.05 0.04 0.05 0.05 0.06 0.08 0.10 0.10 0.07 0.07 0.06 0.03 0.02 0.02 0.02 0.02 0.02 0.01 0.01 0.01 0.00 0.00 0.00 0.00 0.00 0.00 0.00 0.00 0.00 0.01 0.01 0.01 0.01 0.01 0.01
0.05 0.06 0.08 0.10 0.13 0.13 0.08 0.04 0.05 0.06 0.05 0.05 0.06 0.08 0.12 0.13 0.09 0.06 0.06 0.05 0.03 0.02 0.02 0.03 0.02 0.02 0.01 0.01 0.00 0.00 0.00 0.00 0.00 0.00 0.00 0.00 0.00 0.00 0.01 0.01 0.02 0.03 0.03
0.05 0.06 0.09 0.10 0.12 0.14 0.10 0.06 0.04 0.07 0.08 0.07 0.06 0.08 0.14 0.19 0.17 0.13 0.09 0.08 0.06 0.04 0.03 0.03 0.03 0.03 0.02 0.01 0.01 0.00 0.00 0.00 0.00 0.00 0.00 0.00 0.00 0.00 0.00 0.01 0.03 0.03 0.02
0.05 0.07 0.08 0.09 0.10 0.12 0.11 0.05 0.03 0.04 0.08 0.09 0.08 0.08 0.12 0.19 0.21 0.19 0.16 0.13 0.10 0.07 0.06 0.05 0.04 0.04 0.03 0.02 0.01 0.01 0.01 0.00 0.00 0.00 0.00 0.00 0.00 0.00 0.00 0.01 0.02 0.02 0.02
0.04 0.06 0.08 0.08 0.09 0.11 0.11 0.05 0.03 0.03 0.04 0.07 0.09 0.10 0.09 0.13 0.20 0.20 0.18 0.17 0.12 0.07 0.07 0.07 0.05 0.04 0.04 0.02 0.02 0.01 0.01 0.01 0.00 0.00 0.00 0.00 0.00 0.00 0.00 0.01 0.00 0.00 0.01
0.03 0.05 0.07 0.10 0.10 0.10 0.12 0.09 0.04 0.03 0.04 0.05 0.05 0.07 0.08 0.09 0.16 0.20 0.17 0.15 0.13 0.09 0.07 0.06 0.05 0.04 0.04 0.04 0.03 0.02 0.01 0.01 0.01 0.00 0.00 0.00 0.00 0.00 0.00 0.00 0.00 0.00 0.00
0.02 0.04 0.06 0.08 0.10 0.11 0.12 0.13 0.07 0.04 0.04 0.04 0.04 0.04 0.06 0.08 0.11 0.14 0.17 0.15 0.13 0.11 0.08 0.05 0.05 0.05 0.04 0.04 0.03 0.01 0.01 0.01 0.01 0.00 0.00 0.00 0.00 0.00 0.00 0.00 0.00 0.00 0.00
0.02 0.03 0.07 0.08 0.10 0.11 0.10 0.11 0.10 0.05 0.04 0.03 0.03 0.03 0.04 0.06 0.07 0.09 0.11 0.14 0.16 0.14 0.10 0.06 0.03 0.04 0.04 0.04 0.03 0.02 0.02 0.01 0.01 0.01 0.00 0.00 0.00 0.00 0.00 0.00 0.00 0.00 0.00
0.02 0.03 0.05 0.07 0.09 0.10 0.10 0.10 0.09 0.08 0.05 0.03 0.02 0.02 0.03 0.03 0.04 0.06 0.08 0.12 0.15 0.15 0.12 0.10 0.06 0.04 0.03 0.03 0.03 0.04 0.03 0.03 0.02 0.02 0.01 0.01 0.00 0.00 0.00 0.00 0.00 0.00 0.00
0.01 0.01 0.02 0.04 0.07 0.08 0.08 0.09 0.08 0.06 0.04 0.03 0.02 0.03 0.02 0.02 0.03 0.04 0.07 0.09 0.14 0.17 0.16 0.13 0.08 0.05 0.03 0.03 0.03 0.03 0.04 0.04 0.04 0.03 0.02 0.01 0.01 0.01 0.00 0.00 0.00 0.00 0.00
0.01 0.01 0.02 0.03 0.05 0.06 0.06 0.07 0.08 0.06 0.04 0.03 0.02 0.02 0.03 0.02 0.03 0.04 0.05 0.07 0.10 0.14 0.15 0.13 0.10 0.07 0.04 0.04 0.04 0.04 0.04 0.04 0.03 0.03 0.02 0.02 0.01 0.01 0.00 0.00 0.00 0.00 0.00
0.02 0.01 0.01 0.02 0.03 0.04 0.05 0.05 0.07 0.08 0.07 0.05 0.03 0.03 0.02 0.03 0.03 0.04 0.06 0.06 0.07 0.09 0.12 0.14 0.11 0.08 0.05 0.04 0.03 0.03 0.04 0.03 0.02 0.02 0.02 0.01 0.01 0.01 0.00 0.00 0.00 0.00 0.00
0.04 0.03 0.02 0.02 0.02 0.03 0.04 0.04 0.05 0.06 0.06 0.05 0.05 0.04 0.03 0.02 0.03 0.04 0.05 0.07 0.08 0.10 0.12 0.14 0.14 0.10 0.07 0.05 0.04 0.03 0.02 0.02 0.02 0.01 0.01 0.01 0.01 0.01 0.01 0.01 0.00 0.00 0.00
MSLP
1009.84 1010.01 1010.27 1010.63 1011.09 1011.61 1012.14 1012.64 1013.05 1013.38 1013.62 1013.80 1013.96 1014.15 1014.37 1014.63 1014.91 1015.19 1015.43 1015.62 1015.76 1015.85 1015.93 1016.01 1016.12 1016.26 1016.42 1016.58 1016.73 1016.83 1016.90 1016.93 1016.94 1016.95 1016.97 1017.02 1017.09 1017.17 1017.24 1017.28 1017.30 1017.29 1017.28
1009.74 1009.91 1010.18 1010.57 1011.07 1011.63 1012.18 1012.69 1013.10 1013.42 1013.65 1013.85 1014.04 1014.28 1014.56 1014.88 1015.23 1015.55 1015.81 1016.01 1016.13 1016.20 1016.26 1016.32 1016.41 1016.53 1016.68 1016.83 1016.95 1017.04 1017.07 1017.07 1017.06 1017.06 1017.08 1017.13 1017.21 1017.31 1017.39 1017.44 1017.47 1017.47 1017.45
1009.65 1009.81 1010.10 1010.52 1011.05 1011.64 1012.22 1012.74 1013.16 1013.48 1013.72 1013.93 1014.16 1014.43 1014.76 1015.14 1015.52 1015.87 1016.14 1016.33 1016.44 1016.49 1016.52 1016.56 1016.63 1016.75 1016.88 1017.01 1017.12 1017.17 1017.18 1017.16 1017.13 1017.11 1017.14 1017.20 1017.30 1017.41 1017.52 1017.60 1017.64 1017.65 1017.64
1009.59 1009.74 1010.04 1010.49 1011.05 1011.67 1012.28 1012.82 1013.25 1013.58 1013.83 1014.06 1014.31 1014.61 1014.97 1015.37 1015.77 1016.13 1016.40 1016.57 1016.66 1016.70 1016.71 1016.74 1016.81 1016.92 1017.05 1017.17 1017.25 1017.29 1017.28 1017.23 1017.18 1017.16 1017.18 1017.25 1017.37 1017.51 1017.64 1017.74 1017.81 1017.84 1017.85
1009.57 1009.72 1010.02 1010.49 1011.09 1011.74 1012.37 1012.93 1013.38 1013.72 1013.98 1014.23 1014.49 1014.81 1015.18 1015.59 1015.99 1016.34 1016.60 1016.76 1016.84 1016.86 1016.87 1016.91 1016.98 1017.09 1017.22 1017.33 1017.40 1017.42 1017.39 1017.32 1017.26 1017.23 1017.24 1017.32 1017.44 1017.60 1017.75 1017.88 1017.97 1018.02 1018.04
1009.60 1009.74 1010.06 1010.55 1011.17 1011.84 1012.49 1013.07 1013.53 1013.89 1014.17 1014.43 1014.71 1015.03 1015.41 1015.81 1016.20 1016.52 1016.77 1016.92 1016.99 1017.02 1017.04 1017.09 1017.17 1017.29 1017.42 1017.53 1017.59 1017.60 1017.55 1017.46 1017.38 1017.34 1017.35 1017.42 1017.54 1017.69 1017.85 1017.99 1018.10 1018.17 1018.21
1009.70 1009.83 1010.15 1010.65 1011.28 1011.96 1012.63 1013.21 1013.69 1014.07 1014.37 1014.65 1014.94 1015.28 1015.65 1016.04 1016.41 1016.72 1016.95 1017.09 1017.16 1017.20 1017.24 1017.31 1017.41 1017.54 1017.68 1017.78 1017.83 1017.82 1017.76 1017.66 1017.57 1017.51 1017.50 1017.55 1017.66 1017.80 1017.94 1018.08 1018.19 1018.27 1018.32
1009.85 1009.96 1010.27 1010.77 1011.39 1012.07 1012.74 1013.33 1013.83 1014.23 1014.56 1014.87 1015.19 1015.54 1015.92 1016.30 1016.65 1016.95 1017.16 1017.29 1017.37 1017.43 1017.48 1017.57 1017.69 1017.83 1017.96 1018.06 1018.11 1018.08 1018.01 1017.91 1017.80 1017.73 1017.70 1017.73 1017.81 1017.91 1018.03 1018.14 1018.23 1018.31 1018.38
1010.05 1010.14 1010.43 1010.90 1011.49 1012.15 1012.80 1013.39 1013.90 1014.33 1014.70 1015.06 1015.42 1015.80 1016.19 1016.57 1016.92 1017.20 1017.40 1017.54 1017.62 1017.68 1017.75 1017.85 1017.97 1018.11 1018.24 1018.33 1018.37 1018.35 1018.28 1018.18 1018.07 1017.99 1017.95 1017.96 1018.00 1018.06 1018.12 1018.19 1018.26 1018.32 1018.39
1010.27 1010.34 1010.59 1011.02 1011.57 1012.17 1012.79 1013.36 1013.88 1014.34 1014.77 1015.18 1015.60 1016.03 1016.45 1016.85 1017.20 1017.48 1017.67 1017.80 1017.88 1017.94 1018.01 1018.11 1018.23 1018.36 1018.48 1018.57 1018.61 1018.59 1018.54 1018.45 1018.37 1018.30 1018.25 1018.23 1018.23 1018.24 1018.26 1018.27 1018.29 1018.33 1018.40
1010.50 1010.54 1010.76 1011.12 1011.60 1012.14 1012.70 1013.25 1013.77 1014.26 1014.74 1015.23 1015.71 1016.20 1016.67 1017.10 1017.46 1017.74 1017.93 1018.05 1018.12 1018.18 1018.24 1018.32 1018.43 1018.55 1018.66 1018.74 1018.79 1018.80 1018.78 1018.73 1018.68 1018.64 1018.60 1018.57 1018.54 1018.50 1018.46 1018.41 1018.39 1018.40 1018.45
1010.69 1010.73 1010.90 1011.21 1011.61 1012.07 1012.56 1013.07 1013.58 1014.10 1014.63 1015.17 1015.73 1016.28 1016.80 1017.27 1017.66 1017.95 1018.14 1018.26 1018.33 1018.37 1018.42 1018.49 1018.58 1018.68 1018.79 1018.88 1018.94 1018.98 1019.00 1019.01 1019.01 1019.01 1019.00 1018.97 1018.92 1018.84 1018.74 1018.65 1018.57 1018.55 1018.60
1010.82 1010.87 1011.02 1011.26 1011.59 1011.97 1012.39 1012.85 1013.34 1013.87 1014.43 1015.03 1015.65 1016.26 1016.84 1017.35 1017.76 1018.08 1018.28 1018.41 1018.48 1018.52 1018.56 1018.62 1018.70 1018.79 1018.89 1018.99 1019.08 1019.16 1019.24 1019.31 1019.37 1019.42 1019.44 1019.42 1019.36 1019.26 1019.13 1018.99 1018.88 1018.83 1018.86
1010.85 1010.93 1011.08 1011.29 1011.56 1011.88 1012.24 1012.64 1013.10 1013.62 1014.20 1014.84 1015.49 1016.15 1016.77 1017.32 1017.76 1018.10 1018.34 1018.48 1018.57 1018.63 1018.68 1018.74 1018.81 1018.90 1019.01 1019.12 1019.25 1019.37 1019.50 1019.63 1019.75 1019.85 1019.91 1019.91 1019.86 1019.74 1019.59 1019.43 1019.29 1019.22 1019.24
1010.75 1010.89 1011.08 1011.29 1011.54 1011.82 1012.13 1012.50 1012.92 1013.42 1013.99 1014.62 1015.29 1015.97 1016.61 1017.18 1017.66 1018.04 1018.31 1018.50 1018.62 1018.71 1018.79 1018.87 1018.96 1019.07 1019.19 1019.32 1019.47 1019.63 1019.80 1019.98 1020.15 1020.29 1020.38 1020.41 1020.37 1020.26 1020.11 1019.94 1019.80 1019.72 1019.73
1010.51 1010.74 1010.99 1011.26 1011.53 1011.81 1012.11 1012.44 1012.84 1013.30 1013.84 1014.44 1015.09 1015.75 1016.39 1016.97 1017.47 1017.88 1018.21 1018.45 1018.64 1018.79 1018.92 1019.04 1019.17 1019.30 1019.44 1019.59 1019.76 1019.94 1020.14 1020.35 1020.54 1020.71 1020.82 1020.87 1020.85 1020.76 1020.63 1020.48 1020.35 1020.28 1020.29
1010.15 1010.48 1010.83 1011.18 1011.51 1011.84 1012.16 1012.50 1012.88 1013.31 1013.80 1014.35 1014.94 1015.55 1016.16 1016.72 1017.24 1017.68 1018.06 1018.37 1018.63 1018.86 1019.06 1019.24 1019.42 1019.59 1019.75 1019.92 1020.10 1020.29 1020.49 1020.70 1020.90 1021.07 1021.20 1021.27 1021.27 1021.21 1021.11 1020.99 1020.90 1020.85 1020.87
1009.69 1010.13 1010.60 1011.06 1011.50 1011.91 1012.29 1012.66 1013.04 1013.44 1013.88 1014.36 1014.87 1015.41 1015.96 1016.49 1017.00 1017.46 1017.88 1018.26 1018.61 1018.92 1019.20 1019.45 1019.69 1019.90 1020.09 1020.27 1020.45 1020.63 1020.82 1021.01 1021.20 1021.36 1021.49 1021.57 1021.60 1021.58 1021.52 1021.46 1021.41 1021.40 1021.44
1009.21 1009.74 1010.32 1010.91 1011.47 1012.00 1012.47 1012.90 1013.30 1013.68 1014.07 1014.48 1014.91 1015.37 1015.84 1016.32 1016.79 1017.26 1017.72 1018.15 1018.57 1018.96 1019.32 1019.64 1019.93 1020.18 1020.40 1020.60 1020.77 1020.94 1021.10 1021.26 1021.42 1021.57 1021.69 1021.78 1021.84 1021.86 1021.86 1021.85 1021.86 1021.89 1021.95
1008.76 1009.35 1010.02 1010.73 1011.43 1012.08 1012.66 1013.17 1013.62 1014.01 1014.37 1014.71 1015.06 1015.43 1015.82 1016.23 1016.67 1017.12 1017.59 1018.05 1018.52 1018.97 1019.39 1019.77 1020.11 1020.40 1020.65 1020.85 1021.02 1021.17 1021.31 1021.44 1021.58 1021.71 1021.82 1021.92 1022.01 1022.07 1022.12 1022.18 1022.24 1022.31 1022.40
1008.40 1009.02 1009.75 1010.56 1011.37 1012.14 1012.83 1013.44 1013.94 1014.36 1014.71 1015.02 1015.31 1015.60 1015.91 1016.26 1016.64 1017.06 1017.51 1017.99 1018.47 1018.95 1019.41 1019.84 1020.21 1020.53 1020.79 1021.00 1021.18 1021.32 1021.44 1021.56 1021.68 1021.79 1021.91 1022.02 1022.13 1022.23 1022.34 1022.44 1022.55 1022.66 1022.77
1008.17 1008.78 1009.54 1010.40 1011.29 1012.16 1012.95 1013.65 1014.23 1014.69 1015.06 1015.36 1015.61 1015.86 1016.11 1016.39 1016.72 1017.09 1017.51 1017.96 1018.44 1018.92 1019.39 1019.83 1020.22 1020.56 1020.84 1021.07 1021.25 1021.40 1021.52 1021.64 1021.75 1021.86 1021.98 1022.11 1022.24 1022.37 1022.51 1022.66 1022.80 1022.94 1023.07
1008.10 1008.68 1009.42 1010.29 1011.22 1012.14 1013.00 1013.77 1014.43 1014.95 1015.36 1015.68 1015.94 1016.16 1016.38 1016.62 1016.89 1017.21 1017.58 1018.00 1018.44 1018.89 1019.35 1019.78 1020.17 1020.52 1020.82 1021.06 1021.27 1021.43 1021.57 1021.70 1021.82 1021.94 1022.07 1022.20 1022.35 1022.51 1022.67 1022.83 1022.99 1023.14 1023.27
1008.19 1008.71 1009.40 1010.24 1011.16 1012.09 1012.99 1013.81 1014.52 1015.11 1015.58 1015.94 1016.23 1016.46 1016.67 1016.89 1017.13 1017.40 1017.72 1018.08 1018.48 1018.88 1019.30 1019.71 1020.09 1020.44 1020.76 1021.03 1021.25 1021.45 1021.62 1021.77 1021.91 1022.05 1022.19 1022.33 1022.48 1022.64 1022.80 1022.97 1023.13 1023.28 1023.40
1008.42 1008.86 1009.49 1010.26 1011.12 1012.03 1012.92 1013.76 1014.51 1015.15 1015.68 1016.09 1016.43 1016.70 1016.93 1017.14 1017.37 1017.61 1017.89 1018.20 1018.53 1018.90 1019.27 1019.65 1020.02 1020.37 1020.69 1020.99 1021.25 1021.48 1021.69 1021.87 1022.04 1022.19 1022.34 1022.49 1022.63 1022.78 1022.93 1023.08 1023.22 1023.35 1023.46
1008.74 1009.12 1009.66 1010.35 1011.13 1011.97 1012.82 1013.64 1014.40 1015.07 1015.64 1016.12 1016.50 1016.82 1017.08 1017.32 1017.55 1017.78 1018.02 1018.30 1018.59 1018.91 1019.25 1019.60 1019.96 1020.31 1020.65 1020.97 1021.26 1021.53 1021.78 1021.99 1022.18 1022.36 1022.51 1022.66 1022.79 1022.92 1023.05 1023.17 1023.28 1023.38 1023.47
Thickness
5736 5736 5733 5732 5731 5730 5729 5729 5729 5728 5728 5728 5727 5726 5726 5725 5724 5724 5723 5723 5723 5723 5722 5722 5722 5722 5722 5721 5721 5720 5720 5720 5719 5719 5719 5718 5718 5718 5717 5717 5717 5716 5716
5735 5732 5730 5728 5727 5727 5726 5725 5725 5725 5725 5724 5724 5723 5723 5722 5721 5721 5720 5720 5720 5720 5720 5719 5719 5719 5718 5718 5718 5717 5717 5717 5716 5716 5716 5715 5715 5715 5714 5714 5714 5713 5712
5731 5728 5726 5724 5723 5723 5722 5722 5721 5721 5721 5721 5720 5720 5720 5719 5718 5718 5718 5717 5717 5717 5717 5717 5716 5715 5715 5715 5714 5714 5714 5714 5714 5714 5714 5713 5712 5712 5711 5711 5710 5709 5709
5725 5723 5721 5720 5719 5718 5718 5718 5717 5717 5717 5717 5716 5716 5716 5716 5715 5715 5714 5714 5714 5714 5714 5713 5713 5712 5712 5711 5711 5711 5711 5711 5712 5712 5711 5711 5709 5708 5707 5707 5706 5706 5705
5719 5717 5716 5715 5714 5713 5713 5713 5713 5713 5712 5712 5712 5712 5712 5712 5712 5711 5711 5711 5711 5710 5710 5710 5709 5709 5708 5708 5708 5708 5708 5709 5709 5709 5708 5707 5706 5705 5704 5703 5703 5702 5702
5712 5711 5710 5709 5709 5709 5708 5708 5707 5708 5707 5708 5708 5708 5708 5708 5708 5707 5707 5707 5707 5707 5707 5706 5706 5705 5705 5704 5704 5704 5705 5705 5706 5705 5705 5703 5702 5701 5700 5700 5699 5698 5698
5705 5704 5704 5704 5704 5703 5703 5703 5703 5703 5702 5703 5703 5703 5703 5703 5703 5703 5703 5704 5704 5703 5703 5702 5702 5701 5701 5700 5700 5701 5701 5702 5702 5702 5700 5699 5698 5697 5697 5696 5695 5694 5694
5698 5698 5697 5697 5697 5698 5698 5698 5698 5698 5697 5697 5698 5698 5698 5699 5699 5699 5699 5699 5699 5699 5699 5698 5698 5697 5696 5696 5696 5697 5697 5698 5698 5698 5696 5694 5694 5693 5693 5692 5691 5690 5689
5691 5691 5690 5690 5691 5692 5692 5692 5692 5692 5692 5692 5692 5693 5693 5693 5694 5694 5694 5695 5695 5695 5694 5694 5693 5693 5692 5692 5692 5692 5693 5693 5694 5693 5691 5690 5689 5689 5688 5687 5686 5686 5685
5683 5683 5684 5684 5684 5685 5686 5686 5686 5687 5687 5686 5687 5687 5688 5688 5688 5689 5689 5690 5690 5690 5690 5689 5689 5688 5688 5688 5688 5688 5688 5689 5688 5687 5686 5685 5684 5684 5683 5682 5681 5681 5679
5673 5676 5678 5678 5678 5679 5680 5680 5680 5680 5681 5681 5681 5682 5683 5683 5683 5683 5684 5685 5685 5685 5685 5684 5684 5684 5683 5683 5683 5684 5684 5683 5683 5681 5680 5679 5679 5679 5678 5677 5676 5675 5674
5664 5668 5671 5673 5673 5673 5674 5674 5674 5675 5675 5675 5676 5677 5678 5678 5678 5678 5679 5679 5679 5680 5680 5680 5680 5679 5679 5678 5678 5678 5678 5678 5677 5675 5674 5674 5674 5673 5672 5671 5670 5669 5669
5657 5660 5664 5666 5668 5668 5668 5669 5670 5670 5670 5670 5671 5672 5673 5673 5673 5673 5673 5673 5674 5674 5674 5675 5675 5675 5674 5674 5674 5673 5673 5673 5672 5669 5667 5667 5667 5667 5666 5665 5665 5664 5663
5650 5653 5656 5659 5661 5661 5662 5663 5664 5664 5664 5664 5665 5666 5666 5667 5667 5668 5668 5668 5669 5669 5670 5670 5670 5670 5670 5670 5669 5668 5668 5667 5666 5663 5661 5661 5661 5661 5660 5659 5658 5657 5656
5643 5645 5648 5651 5653 5654 5654 5656 5658 5658 5658 5658 5659 5660 5660 5660 5661 5662 5663 5663 5664 5664 5665 5665 5665 5665 5665 5664 5664 5664 5663 5662 5660 5657 5655 5654 5654 5654 5653 5653 5652 5651 5650
5636 5637 5639 5642 5645 5646 5647 5648 5650 5651 5651 5652 5652 5652 5653 5654 5655 5656 5656 5656 5657 5659 5659 5659 5660 5660 5659 5659 5658 5658 5657 5656 5654 5651 5649 5647 5647 5646 5646 5645 5644 5643 5642
5629 5631 5631 5634 5636 5638 5638 5639 5641 5643 5644 5644 5644 5644 5645 5646 5648 5649 5649 5649 5650 5651 5652 5653 5653 5653 5653 5652 5651 5651 5650 5649 5647 5645 5643 5641 5639 5638 5638 5637 5637 5635 5634
5623 5623 5624 5626 5627 5629 5630 5631 5632 5634 5635 5636 5637 5637 5637 5638 5640 5642 5642 5642 5643 5643 5645 5645 5646 5645 5644 5643 5643 5643 5642 5641 5640 5638 5636 5634 5632 5630 5629 5629 5628 5627 5625
5617 5616 5616 5618 5618 5620 5622 5622 5623 5624 5626 5627 5629 5629 5629 5631 5632 5634 5634 5634 5635 5635 5636 5638 5638 5638 5636 5635 5634 5634 5633 5633 5632 5631 5628 5626 5624 5623 5621 5620 5618 5617 5616
5611 5610 5609 5610 5610 5612 5613 5613 5613 5615 5616 5618 5620 5621 5622 5623 5624 5626 5627 5628 5628 5628 5628 5629 5629 5629 5628 5627 5627 5625 5624 5624 5623 5622 5620 5618 5617 5615 5613 5612 5610 5608 5607
5605 5603 5602 5602 5603 5603 5605 5606 5605 5605 5607 5609 5611 5613 5614 5615 5617 5618 5619 5620 5621 5620 5621 5621 5621 5620 5619 5619 5617 5614 5614 5615 5614 5613 5612 5610 5608 5607 5605 5604 5602 5600 5598
5599 5598 5597 5596 5596 5597 5598 5600 5600 5599 5599 5601 5603 5604 5606 5607 5609 5611 5612 5612 5613 5612 5612 5613 5613 5611 5610 5611 5609 5607 5603 5602 5603 5604 5603 5601 5600 5598 5597 5595 5593 5591 5589
5593 5593 5594 5592 5591 5592 5592 5593 5594 5592 5592 5593 5594 5596 5597 5599 5601 5603 5604 5605 5605 5605 5604 5604 5604 5604 5602 5602 5603 5602 5599 5597 5594 5593 5593 5592 5591 5589 5587 5586 5584 5582 5580
5589 5589 5588 5587 5587 5586 5587 5587 5587 5588 5587 5587 5588 5589 5589 5591 5593 5595 5596 5597 5597 5597 5596 5596 5596 5596 5595 5593 5593 5594 5593 5592 5588 5583 5582 5582 5582 5580 5578 5577 5575 5573 5570
5585 5584 5584 5583 5582 5581 5581 5582 5581 5582 5582 5581 5581 5581 5582 5583 5585 5587 5588 5588 5589 5588 5588 5587 5587 5587 5587 5586 5585 5584 5584 5583 5582 5577 5572 5571 5571 5570 5569 5567 5565 5563 5560
5581 5579 5579 5578 5576 5576 5576 5576 5576 5576 5576 5575 5575 5575 5574 5575 5577 5578 5580 5580 5580 5580 5580 5579 5579 5578 5578 5577 5576 5575 5573 5572 5570 5568 5565 5561 5559 5559 5559 5558 5555 5553 5550